Lexington Weather

Lexington, Massachusetts, USA

46°F
10/22/2019 2:00am 
  • Lexington Conditions: Few Clouds
  • Temperature: 46.0°F / 7.8°CWarmer 0.5°F than last hour.
  • Dew Point: 44.4°FIncreased 1.4°Fsince last hour.
  • Relative Humidity: 94%Increased 3.0% since last hour.
  • Wind: Calm, 10-min avg: Calm, gust: None
  • Barometer: 30.12 in Steady
  • Visibility: 10 miles
  • Rain Today: 0.00 in
  •   

Regional Weather Roundup
for Boston, MA

        
000
ASUS41 KBOX 202200
RWRBOX

REGIONAL WEATHER ROUNDUP
NATIONAL WEATHER SERVICE BOSTON/NORTON MA
600 PM EDT SUN OCT 20 2019

NOTE:  "FAIR" INDICATES FEW OR NO CLOUDS BELOW 12,000 FEET WITH NO 
SIGNIFICANT WEATHER AND/OR OBSTRUCTIONS TO VISIBILITY.

MAZALL-202300-
EASTERN MASSACHUSETTS
  
CITY           SKY/WX    TMP DP  RH WIND       PRES   REMARKS
BOSTON         CLOUDY    57  49  74 E7        30.05F                  
BEVERLY        FAIR      54  46  74 E3        30.05F                  
LAWRENCE       FAIR      55  45  68 E3        30.07F                  
BEDFORD        CLOUDY    58  42  55 E3        30.04F                  
BLUE HILL      NOT AVBL                                               
NORWOOD        FAIR      58  46  64 CALM      30.04F                  
MARSHFIELD     NOT AVBL                                               
PLYMOUTH       FAIR      55  48  77 SE3       30.05F                  
TAUNTON        FAIR      57  48  72 SE3       30.04F                  
NEW BEDFORD    FAIR      56  47  71 SE6       30.04F                  
$$

MAZALL-202300-
CAPE COD AND THE ISLANDS
  
CITY           SKY/WX    TMP DP  RH WIND       PRES   REMARKS
FALMOUTH       CLEAR     54  46  76 E5        30.06F                  
HYANNIS        NOT AVBL                                               
CHATHAM        NOT AVBL                                               
PROVINCETOWN   FAIR      55  47  74 SE5         N/A                   
NANTUCKET      MOCLDY    54  50  86 E6        30.06F                  
MARTHAS VNYRD  FAIR      55  49  80 E5        30.05F                  
$$
 
MAZALL-202300-
CENTRAL AND WESTERN MASSACHUSETTS
  
CITY           SKY/WX    TMP DP  RH WIND       PRES   REMARKS
WORCESTER      LGT RAIN  54  42  64 CALM      30.04F                  
FITCHBURG      FAIR      56  42  59 CALM      30.05F                  
ORANGE         LGT RAIN  52  48  86 CALM      30.04F                  
SPRINGFIELD    NOT AVBL                                               
WESTFIELD      LGT RAIN  52  50  93 CALM      30.03F                  
NORTH ADAMS    CLOUDY    50  46  86 SE3       30.03S                  
PITTSFIELD     CLOUDY    50  47  89 CALM      30.02S                  
$$
 
RIZALL-202300-
RHODE ISLAND
  
CITY           SKY/WX    TMP DP  RH WIND       PRES   REMARKS
PROVIDENCE     CLOUDY    57  48  72 CALM      30.04F                  
NEWPORT        FAIR      56  47  71 E3        30.03F                  
BLOCK ISLAND   CLOUDY    56  50  80 E7        30.04F                  
SMITHFIELD     FAIR     N/A N/A N/A CALM      30.04F                  
WESTERLY       CLOUDY    59  50  72 E3        30.04S                  
$$
 
CTZALL-202300-
CONNECTICUT
  
CITY           SKY/WX    TMP DP  RH WIND       PRES   REMARKS
BRADLEY INTL   LGT RAIN  54  49  83 N3        30.03F                  
HARTFORD       LGT RAIN  54  49  83 CALM      30.03F                  
BRIDGEPORT     LGT RAIN  57  52  83 E10       30.01F                  
DANBURY        LGT RAIN  53  52  96 NE3       30.02F FOG              
GROTON         NOT AVBL                                               
NEW HAVEN      LGT RAIN  57  52  83 NE3       30.02F                  
CHESTER        LGT RAIN  54  52  94 CALM      30.03S                  
MERIDEN        LGT RAIN  52  50  93 CALM      30.03F                  
WILLIMANTIC    LGT RAIN  54  49  83 CALM      30.05R                  
OXFORD         LGT RAIN  51  49  92 NE5       30.03F FOG              
$$

MEZ002-015-021-024-NHZ003-005-008-011-012-014-VTZ005-008-202300-
NORTHERN NEW ENGLAND
  
CITY           SKY/WX    TMP DP  RH WIND       PRES   REMARKS
PORTLAND ME    MOCLDY    51  44  77 SE6       30.08F                  
BANGOR ME      MOCLDY    50  40  68 S5        30.08S                  
CONCORD NH     FAIR      54  42  64 CALM      30.05S                  
MANCHESTER NH  CLOUDY    56  42  59 CALM      30.03F                  
NASHUA NH      MOCLDY    54  46  74 CALM      30.05F                  
PORTSMOUTH NH  CLOUDY    53  47  81 E5        30.05F                  
JAFFREY NH     LGT RAIN  52  43  71 CALM      30.05S                  
KEENE NH       LGT RAIN  51  47  86 CALM      30.05S                  
BURLINGTON VT  MOCLDY    54  40  59 S10       29.99S                  
MT. WASHINGTON NOT AVBL                                               
$$

NYZ052-076-202300-
EASTERN NEW YORK
  
CITY           SKY/WX    TMP DP  RH WIND       PRES   REMARKS
ALBANY         LGT RAIN  52  47  83 S3        30.03S                  
NEW YORK CITY  RAIN      58  53  84 NE10      29.99S                  
$$
 
ANZALL-202300-
MARINE OBSERVATIONS
  
STATION/POSITION TIME  TEMP    WIND        PRES    VSBY  WAVE
                       AIR SEA DIR/SP/G                  HT/PER
                 (UTC) (F)     (DEG/KT/KT) (MB)    (MI)  (FT/S)
BOSTON BUOY      2050   56 57   80/  4/  4 1017.3          1/12
BUZZARDS BAY     2100   57      80/  4/  5 1018.1F
NANTUCKET SOUND  2120      57              1018.0
MASS BAY-STELLWA 2104   56 56  130/  6/  6 1017.6S  1 7/8  1/ 4
ISLE OF SHOALS   2100   54     130/  4/  5 1018.0S
S OF BLOCK IS    2130      60                N/A           2/10
$$

......................KEY.........................
  SKY/WX - SKY CONDITION/PRESENT WEATHER
  TMP    - TEMPERATURE IN FAHRENHEIT
  DWPT   - DEWPOINT IN FAHRENHEIT
  RH     - RELATIVE HUMIDITY IN PERCENT
  WIND   - DIRECTION AND SPEED IN MPH
  PRES   - MEAN SEA LEVEL PRESSURE IN INCHES OF HG
  WCI    - WIND CHILL INDEX
  VSB    - VISIBILITY IN MILES
  HX     - HEAT INDEX
  TC     - TEMPERATURE IN CELSIUS
  VRB    - VARIABLE WIND DIRECTION
  N/A    - NOT AVAILABLE
  
      

Other recent Regional Weather Roundups

Tue Oct 22, 1:10am

Tue Oct 22, 1:00am

Tue Oct 22, 12:10am

Tue Oct 22, 12:00am

Mon Oct 21, 11:10pm

Mon Oct 21, 11:00pm

Mon Oct 21, 10:10pm

Mon Oct 21, 10:01pm

Mon Oct 21, 9:10pm

Mon Oct 21, 9:00pm

Mon Oct 21, 8:10pm

Mon Oct 21, 8:00pm

Mon Oct 21, 7:10pm

Mon Oct 21, 7:01pm

Mon Oct 21, 6:10pm

Mon Oct 21, 6:01pm

Mon Oct 21, 5:10pm

Mon Oct 21, 5:01pm

Mon Oct 21, 4:10pm

Mon Oct 21, 4:00pm

Mon Oct 21, 3:10pm

Mon Oct 21, 3:01pm

Mon Oct 21, 2:10pm

Mon Oct 21, 2:00pm

Mon Oct 21, 1:10pm

Mon Oct 21, 1:01pm

Mon Oct 21, 12:10pm

Mon Oct 21, 12:00pm

Mon Oct 21, 11:10am

Mon Oct 21, 11:00am

Mon Oct 21, 10:10am

Mon Oct 21, 10:00am

Mon Oct 21, 9:10am

Mon Oct 21, 9:00am

Mon Oct 21, 7:10am

Mon Oct 21, 7:00am

Mon Oct 21, 6:10am

Mon Oct 21, 6:00am

Mon Oct 21, 5:10am

Mon Oct 21, 5:00am

Mon Oct 21, 4:10am

Mon Oct 21, 4:00am

Mon Oct 21, 3:10am

Mon Oct 21, 3:00am

Mon Oct 21, 2:10am

Mon Oct 21, 2:01am

Mon Oct 21, 1:10am

Mon Oct 21, 1:00am

Mon Oct 21, 12:10am

Mon Oct 21, 12:00am

Sun Oct 20, 11:10pm

Sun Oct 20, 11:00pm

Sun Oct 20, 10:10pm

Sun Oct 20, 10:00pm

Sun Oct 20, 9:10pm

Sun Oct 20, 9:01pm

Sun Oct 20, 8:10pm

Sun Oct 20, 8:00pm

Sun Oct 20, 7:10pm

Sun Oct 20, 7:01pm

Sun Oct 20, 6:10pm

Sun Oct 20, 5:10pm

Sun Oct 20, 5:00pm

Sun Oct 20, 4:10pm

Sun Oct 20, 4:00pm

Sun Oct 20, 3:10pm

Sun Oct 20, 3:00pm

Sun Oct 20, 2:10pm

Sun Oct 20, 2:01pm

Sun Oct 20, 1:10pm

Sun Oct 20, 1:01pm

Sun Oct 20, 12:10pm

Sun Oct 20, 12:00pm

Sun Oct 20, 11:10am

Sun Oct 20, 11:00am

Sun Oct 20, 10:10am

Sun Oct 20, 10:00am

Sun Oct 20, 9:10am

Sun Oct 20, 9:00am

Sun Oct 20, 8:10am

Sun Oct 20, 8:00am

Sun Oct 20, 7:10am

Sun Oct 20, 7:00am

Sun Oct 20, 6:10am

Sun Oct 20, 6:00am

Sun Oct 20, 5:10am

Sun Oct 20, 5:00am

Sun Oct 20, 4:10am

Sun Oct 20, 4:00am

Sun Oct 20, 3:10am

Sun Oct 20, 3:00am

Sun Oct 20, 2:10am

Sun Oct 20, 2:00am

Sun Oct 20, 1:10am

Sun Oct 20, 1:00am

Sun Oct 20, 12:10am

Sun Oct 20, 12:00am

Sat Oct 19, 11:10pm

Sat Oct 19, 11:00pm

Sat Oct 19, 10:10pm

Sat Oct 19, 10:00pm

Sat Oct 19, 9:10pm

Sat Oct 19, 9:00pm

Sat Oct 19, 8:10pm

Sat Oct 19, 8:00pm

Sat Oct 19, 7:10pm

Sat Oct 19, 7:00pm

Sat Oct 19, 6:10pm

Sat Oct 19, 6:00pm

Sat Oct 19, 5:10pm

Sat Oct 19, 5:00pm

Sat Oct 19, 4:10pm

Sat Oct 19, 4:00pm

Sat Oct 19, 3:10pm

Sat Oct 19, 3:01pm

Sat Oct 19, 2:10pm

Sat Oct 19, 2:00pm

Sat Oct 19, 1:10pm

Sat Oct 19, 1:01pm

Sat Oct 19, 12:10pm

Sat Oct 19, 12:00pm

Sat Oct 19, 11:10am

Sat Oct 19, 11:01am

Sat Oct 19, 10:10am

Sat Oct 19, 10:00am

Sat Oct 19, 9:10am

Sat Oct 19, 9:00am

Sat Oct 19, 8:10am

Sat Oct 19, 8:00am

Sat Oct 19, 7:10am

Sat Oct 19, 7:00am

Sat Oct 19, 6:10am

Sat Oct 19, 6:00am

Sat Oct 19, 5:10am

Sat Oct 19, 5:00am

Sat Oct 19, 4:10am

Sat Oct 19, 4:00am

Sat Oct 19, 3:10am

Sat Oct 19, 3:00am

Sat Oct 19, 2:10am

Sat Oct 19, 2:00am

Meta data:

ID: 5a68bb1c-804a-4012-b682-fe060c2b0634
Link: https://api.weather.gov/products/5a68bb1c-804a-4012-b682-fe060c2b0634